Location: Unspecified
(0.0000°N, 0.0000°E)
Time: 13:39:52
(UTC+00:00)

deb Explorer IX - Pass Details

Date: 19 November 2019
Orbit: 545 x 1105 km, 38.8° (Epoch: 08 December)

Event Time Altitude Azimuth Distance (km) Brightness Sun altitude
Rises 18:32:11 0° 191° (SSW) 3,728 ? -11.0°
Reaches altitude 10° 18:37:42 10° 156° (SSE) 2,888 ? -12.3°
Maximum altitude 18:39:15 11° 143° (SE) 2,854 ? -12.7°
Drops below altitude 10° 18:40:50 10° 130° (SE) 2,928 ? -13.0°
Enters shadow 18:43:20 - 112° (ESE) 3,246 ? -13.6°
Sets 18:46:34 0° 95° (E) 3,914 - -14.4°
